N3EG Weather Reports


time (UTC)temp
F
wind
direction
speed
knots
gust
knots
rain 1hr
in
rain 24hr
in
rain mn
in
humidity
%
barometer
mb
20260505064503 55 287 2.6 5.2 0.00 0.00 0.00 87 1014.0
20260505064002 56 286 1.7 6.1 0.00 0.00 0.00 87 1014.0
20260505063503 56 291 2.6 6.1 0.00 0.00 0.00 87 1014.0
20260505063002 56 259 2.6 6.1 0.00 0.00 0.00 87 1014.0
20260505062502 56 255 1.7 6.1 0.00 0.00 0.00 87 1014.0
20260505062003 56 221 2.6 7.0 0.00 0.00 0.00 88 1014.0
20260505061503 56 220 1.7 8.7 0.00 0.00 0.00 88 1013.9
20260505061002 56 266 3.5 8.7 0.00 0.00 0.00 88 1013.9
20260505060503 56 204 1.7 6.1 0.00 0.00 0.00 88 1013.9
20260505060002 56 291 2.6 8.7 0.00 0.00 0.00 88 1013.7
20260505055502 56 263 2.6 8.7 0.00 0.00 0.00 88 1013.7
20260505055003 56 302 1.7 7.0 0.00 0.00 0.00 88 1013.7
20260505054502 56 250 2.6 7.0 0.00 0.00 0.00 88 1013.7
20260505054002 56 298 1.7 7.0 0.00 0.00 0.00 88 1013.5
20260505053503 56 295 1.7 6.1 0.00 0.00 0.00 88 1013.6
20260505053002 56 324 1.7 6.1 0.00 0.00 0.00 87 1013.5
20260505052502 56 301 0.9 7.0 0.00 0.00 0.00 87 1013.6
20260505052003 56 268 2.6 7.0 0.00 0.00 0.00 87 1013.5
20260505051502 56 331 1.7 6.1 0.00 0.00 0.00 87 1013.5
20260505051002 56 308 1.7 6.1 0.00 0.00 0.00 87 1013.6
20260505050503 56 260 1.7 6.1 0.00 0.00 0.00 87 1013.5
20260505041503 56 252 1.7 3.5 0.00 0.00 0.00 86 1013.2
20260505041003 56 260 0.0 5.2 0.00 0.00 0.00 86 1013.2
20260505040502 56 288 0.9 5.2 0.00 0.00 0.00 86 1013.1
20260505040003 56 215 3.5 5.2 0.00 0.00 0.00 86 1013.0
20260505035502 56 270 1.7 10.4 0.00 0.00 0.00 85 1012.9
20260505035003 56 188 1.7 10.4 0.00 0.00 0.00 85 1012.9
20260505034503 56 239 2.6 8.7 0.00 0.00 0.00 85 1012.8
20260505034002 57 266 2.6 8.7 0.00 0.00 0.00 85 1012.7
20260505033503 57 269 1.7 7.8 0.00 0.00 0.00 85 1012.7
20260505033002 57 290 2.6 7.8 0.00 0.00 0.00 84 1012.6
20260505032502 57 300 3.5 10.4 0.00 0.00 0.00 84 1012.4
20260505032003 57 258 2.6 10.4 0.00 0.00 0.00 84 1012.5
20260505031502 58 275 2.6 8.7 0.00 0.00 0.00 83 1012.3
20260505031002 58 282 2.6 8.7 0.00 0.00 0.00 83 1012.3
20260505030503 58 264 2.6 13.0 0.00 0.00 0.00 82 1012.2
20260505030003 58 289 2.6 13.0 0.00 0.00 0.00 82 1012.2
20260505025502 59 269 3.5 10.4 0.00 0.00 0.00 81 1012.2
20260505025003 59 289 3.5 10.4 0.00 0.00 0.00 81 1012.1
20260505024502 59 290 4.3 12.2 0.00 0.00 0.00 80 1012.1
20260505024002 60 310 3.5 12.2 0.00 0.00 0.00 79 1012.0
20260505023503 60 220 3.5 10.4 0.00 0.00 0.00 79 1012.0
20260505023002 60 323 3.5 13.0 0.00 0.00 0.00 78 1011.9
20260505022502 61 316 4.3 13.0 0.00 0.00 0.00 78 1011.9
20260505022003 61 309 4.3 12.2 0.00 0.00 0.00 77 1011.8
20260505021502 62 294 4.3 12.2 0.00 0.00 0.00 75 1011.8
20260505021002 63 306 4.3 8.7 0.00 0.00 0.00 75 1011.8
20260505020503 63 248 1.7 7.8 0.00 0.00 0.00 75 1011.8
20260505020002 63 314 4.3 10.4 0.00 0.00 0.00 74 1011.7
20260505015502 64 349 4.3 10.4 0.00 0.00 0.00 74 1011.7
20260505015003 64 319 5.2 10.4 0.00 0.00 0.00 73 1011.7
20260505014502 64 285 2.6 12.2 0.00 0.00 0.00 74 1011.5
20260505014002 65 273 2.6 12.2 0.00 0.00 0.00 73 1011.5
20260505013503 65 278 1.7 9.6 0.00 0.00 0.00 72 1011.6
20260505013002 65 313 2.6 9.6 0.00 0.00 0.00 72 1011.5
20260505012502 66 306 3.5 10.4 0.00 0.00 0.00 72 1011.5
20260505012003 66 282 3.5 10.4 0.00 0.00 0.00 71 1011.6
20260505011502 67 292 4.3 10.4 0.00 0.00 0.00 70 1011.4
20260505011002 67 306 2.6 9.6 0.00 0.00 0.00 70 1011.5
20260505010503 68 286 3.5 9.6 0.00 0.00 0.00 68 1011.4
20260505010002 68 308 3.5 10.4 0.00 0.00 0.00 69 1011.5
20260505005502 68 297 3.5 10.4 0.00 0.00 0.00 68 1011.4
20260505005003 69 293 2.6 8.7 0.00 0.00 0.00 68 1011.4
20260505004502 69 310 3.5 8.7 0.00 0.00 0.00 68 1011.4
20260505004002 69 260 2.6 9.6 0.00 0.00 0.00 67 1011.4
20260505003503 69 281 3.5 9.6 0.00 0.00 0.00 67 1011.3
20260505003002 70 264 2.6 7.8 0.00 0.00 0.00 67 1011.4
20260505002502 70 310 2.6 8.7 0.00 0.00 0.00 67 1011.5
20260505002003 70 309 4.3 9.6 0.00 0.00 0.00 66 1011.4
20260505001502 70 312 1.7 9.6 0.00 0.00 0.00 66 1011.4
20260505001002 70 274 1.7 10.4 0.00 0.00 0.00 66 1011.4
20260505000503 70 212 2.6 12.2 0.00 0.00 0.00 65 1011.3
20260505000002 71 287 4.3 12.2 0.00 0.00 0.00 65 1011.3
20260504235502 71 333 4.3 13.0 0.00 0.00 0.00 66 1011.3
20260504235003 71 326 7.0 13.0 0.00 0.00 0.00 65 1011.3
20260504234502 71 289 3.5 13.0 0.00 0.00 0.00 65 1011.3
20260504234003 72 320 6.1 13.0 0.00 0.00 0.00 64 1011.3
20260504233503 72 328 5.2 13.9 0.00 0.00 0.00 66 1011.3
20260504233002 72 305 4.3 13.9 0.00 0.00 0.00 66 1011.2
20260504232503 72 304 2.6 14.8 0.00 0.00 0.00 66 1011.1
20260504232003 72 311 5.2 14.8 0.00 0.00 0.00 66 1011.1
20260504231502 72 306 5.2 11.3 0.00 0.00 0.00 66 1011.0
20260504231003 72 323 5.2 12.2 0.00 0.00 0.00 66 1011.2
20260504230502 73 307 4.3 12.2 0.00 0.00 0.00 64 1011.1
20260504230002 73 322 4.3 12.2 0.00 0.00 0.00 66 1011.1
20260504225503 73 308 4.3 12.2 0.00 0.00 0.00 65 1011.3
20260504225003 73 319 5.2 10.4 0.00 0.00 0.00 66 1011.3
20260504224502 73 318 5.2 10.4 0.00 0.00 0.00 65 1011.3
20260504224003 73 309 4.3 11.3 0.00 0.00 0.00 63 1011.4
20260504223502 73 317 4.3 11.3 0.00 0.00 0.00 65 1011.4
20260504223002 74 311 4.3 9.6 0.00 0.00 0.00 65 1011.4
20260504222503 74 321 5.2 9.6 0.00 0.00 0.00 66 1011.5
20260504222002 74 316 2.6 8.7 0.00 0.00 0.00 65 1011.5
20260504221502 74 288 2.6 8.7 0.00 0.00 0.00 63 1011.6
20260504221003 75 294 2.6 7.8 0.00 0.00 0.00 64 1011.6
20260504220502 74 306 3.5 7.8 0.00 0.00 0.00 64 1011.6
20260504220002 74 311 1.7 8.7 0.00 0.00 0.00 65 1011.8
20260504215503 74 294 4.3 8.7 0.00 0.00 0.00 63 1011.8
20260504215002 73 292 5.2 8.7 0.00 0.00 0.00 62 1011.8
20260504214502 73 353 2.6 7.0 0.00 0.00 0.00 62 1011.8
20260504214003 73 316 2.6 11.3 0.00 0.00 0.00 65 1011.8
20260504213502 73 329 5.2 11.3 0.00 0.00 0.00 66 1011.9
20260504213002 73 330 4.3 9.6 0.00 0.00 0.00 66 1011.9
20260504212503 73 305 3.5 10.4 0.00 0.00 0.00 67 1012.0
20260504212002 73 291 3.5 10.4 0.00 0.00 0.00 66 1011.9
20260504211502 73 323 3.5 8.7 0.00 0.00 0.00 66 1012.0
20260504211003 73 323 4.3 8.7 0.00 0.00 0.00 66 1012.0
20260504210502 73 324 3.5 7.8 0.00 0.00 0.00 68 1012.1
20260504210002 72 310 4.3 8.7 0.00 0.00 0.00 67 1012.1
20260504205503 72 326 4.3 9.6 0.00 0.00 0.00 68 1012.3
20260504205002 72 323 6.1 9.6 0.00 0.00 0.00 67 1012.3
20260504204502 72 312 3.5 8.7 0.00 0.00 0.00 68 1012.2
20260504204003 71 323 4.3 9.6 0.00 0.00 0.00 69 1012.3
20260504203502 71 323 4.3 9.6 0.00 0.00 0.00 69 1012.5
20260504203003 71 314 4.3 9.6 0.00 0.00 0.00 68 1012.5
20260504202503 71 328 2.6 8.7 0.00 0.00 0.00 70 1012.5
20260504202002 71 328 5.2 8.7 0.00 0.00 0.00 69 1012.6
20260504201503 70 327 4.3 8.7 0.00 0.00 0.00 70 1012.6
20260504201003 70 327 4.3 9.6 0.00 0.00 0.00 71 1012.7
20260504200502 70 308 4.3 9.6 0.00 0.00 0.00 71 1012.8
20260504200003 70 323 6.1 8.7 0.00 0.00 0.00 69 1012.9
20260504195503 70 310 4.3 8.7 0.00 0.00 0.00 71 1013.0
20260504195002 70 315 3.5 8.7 0.00 0.00 0.00 73 1012.9
20260504194503 69 296 3.5 8.7 0.00 0.00 0.00 71 1012.9
20260504194003 69 316 2.6 8.7 0.00 0.00 0.00 73 1013.0
20260504193503 69 323 3.5 8.7 0.00 0.00 0.00 72 1013.1
20260504193003 69 315 3.5 7.0 0.00 0.00 0.00 72 1013.1
20260504192502 68 300 2.6 7.0 0.00 0.00 0.00 71 1013.2
20260504192002 68 317 2.6 6.1 0.00 0.00 0.00 73 1013.3
20260504191503 67 300 1.7 6.1 0.00 0.00 0.00 73 1013.3
20260504191002 67 315 2.6 7.0 0.00 0.00 0.00 75 1013.3
20260504190502 67 288 2.6 7.0 0.00 0.00 0.00 75 1013.4
20260504190003 66 318 2.6 7.8 0.00 0.00 0.00 77 1013.4
20260504185502 65 314 4.3 7.8 0.00 0.00 0.00 76 1013.4
20260504185002 65 330 4.3 7.8 0.00 0.00 0.00 77 1013.5
20260504184503 65 334 3.5 7.8 0.00 0.00 0.00 77 1013.6
20260504184002 65 338 3.5 7.8 0.00 0.00 0.00 76 1013.5
20260504183503 65 296 4.3 7.8 0.00 0.00 0.00 76 1013.5
20260504183003 64 349 3.5 7.8 0.00 0.00 0.00 78 1013.6
20260504182502 64 328 3.5 8.7 0.00 0.00 0.00 76 1013.7
20260504182003 64 324 3.5 8.7 0.00 0.00 0.00 78 1013.7
20260504181503 64 315 2.6 8.7 0.00 0.00 0.00 79 1013.7
20260504181002 64 328 4.3 7.8 0.00 0.00 0.00 78 1013.8
20260504180503 64 328 3.5 7.8 0.00 0.00 0.00 78 1013.9
20260504180003 63 316 2.6 7.8 0.00 0.00 0.00 80 1013.7
20260504175502 63 337 4.3 8.7 0.00 0.00 0.00 80 1013.8
20260504175003 62 324 4.3 8.7 0.00 0.00 0.00 79 1013.7
20260504174503 62 333 5.2 7.8 0.00 0.00 0.00 79 1013.7
20260504174002 62 325 4.3 7.8 0.00 0.00 0.00 80 1013.8
20260504173503 62 307 4.3 9.6 0.00 0.00 0.00 81 1013.8
20260504173002 62 321 4.3 9.6 0.00 0.00 0.00 79 1013.7
20260504172502 62 329 5.2 8.7 0.00 0.00 0.00 80 1013.8
20260504172003 62 320 3.5 7.8 0.00 0.00 0.00 81 1013.9
20260504171502 61 288 2.6 8.7 0.00 0.00 0.00 82 1013.9
20260504171003 61 317 4.3 8.7 0.00 0.00 0.00 82 1013.8
20260504170503 61 322 5.2 8.7 0.00 0.00 0.00 82 1013.9
20260504151002 56 281 1.7 8.7 0.00 0.00 0.00 89 1013.2
20260504150503 56 297 2.6 7.8 0.00 0.00 0.00 89 1013.2
20260504141003 55 246 0.9 2.6 0.00 0.00 0.00 91 1012.8
20260504140503 54 179 0.9 2.6 0.00 0.00 0.00 92 1012.7
20260504130502 54 173 0.9 3.5 0.00 0.00 0.00 91 1011.6
20260504110502 55 17 1.7 3.5 0.00 0.00 0.00 87 1010.4
20260504100502 56 293 0.0 2.6 0.00 0.00 0.00 85 1010.2
20260504082003 58 97 0.0 0.9 0.00 0.00 0.00 85 1009.4
20260504081502 58 97 0.0 0.9 0.00 0.00 0.00 85 1009.5
20260504081002 58 99 0.9 0.9 0.00 0.00 0.00 84 1009.4
20260504080503 58 100 0.0 0.0 0.00 0.00 0.00 84 1009.3